Time,TemperatureF,DewpointF,PressureIn,WindDirection,WindDirectionDegrees,WindSpeedMPH,WindSpeedGustMPH,Humidity,HourlyPrecipIn,Conditions,Clouds,dailyrainin,SoftwareType,DateUTC
2013-07-04 00:55:00,81.8,75.4,30.09,ESE,119,2.0,14.0,81,0.00,,BKN200,0.00,VWS V14.00,2013-07-04 04:55:00,
2013-07-04 01:55:00,81.7,75.3,30.09,SE,129,3.0,12.0,81,0.00,,BKN250,0.00,VWS V14.00,2013-07-04 05:55:00,
2013-07-04 02:55:00,81.6,75.6,30.06,SE,136,0.0,9.0,82,0.00,,SCT250,0.00,VWS V14.00,2013-07-04 06:55:00,
2013-07-04 03:55:00,80.8,75.5,30.05,SE,126,6.0,16.0,84,0.00,,SCT250,0.00,VWS V14.00,2013-07-04 07:55:00,
2013-07-04 04:55:00,81.2,74.8,30.05,SE,143,9.0,13.0,81,0.00,,BKN250,0.00,VWS V14.00,2013-07-04 08:55:00,
2013-07-04 05:55:00,81.0,75.3,30.05,East,101,6.0,13.0,83,0.00,,BKN200,0.00,VWS V14.00,2013-07-04 09:55:00,
2013-07-04 06:55:00,81.7,73.8,30.06,South,188,7.0,16.0,77,0.00,,BKN250,0.00,VWS V14.00,2013-07-04 10:55:00,
2013-07-04 07:55:00,82.2,74.3,30.08,ESE,117,0.0,15.0,77,0.00,,BKN250,0.00,VWS V14.00,2013-07-04 11:55:00,
2013-07-04 08:55:00,82.1,75.7,30.09,ESE,111,3.0,18.0,81,0.00,,BKN250,0.02,VWS V14.00,2013-07-04 12:55:00,
2013-07-04 09:55:00,80.3,76.1,30.10,SSE,150,3.0,14.0,87,0.00,,BKN250,0.07,VWS V14.00,2013-07-04 13:55:00,
2013-07-04 10:55:00,85.0,76.2,30.11,South,185,3.0,14.0,75,0.00,,BKN250,0.07,VWS V14.00,2013-07-04 14:55:00,
2013-07-04 11:55:00,85.6,76.4,30.11,SE,132,0.0,16.0,74,0.00,,BKN250,0.07,VWS V14.00,2013-07-04 15:55:00,
2013-07-04 12:55:00,86.4,77.1,30.11,East,98,3.0,16.0,74,0.00,,BKN250,0.07,VWS V14.00,2013-07-04 16:55:00,
2013-07-04 13:55:00,87.2,76.2,30.10,ESE,123,9.0,16.0,70,0.00,,-RA,0.07,VWS V14.00,2013-07-04 17:55:00,
2013-07-04 14:55:00,86.2,77.3,30.09,South,169,1.0,16.0,75,0.00,,BKN045,0.07,VWS V14.00,2013-07-04 18:55:00,
2013-07-04 15:55:00,83.4,75.4,30.08,ESE,112,1.0,14.0,77,0.00,,,0.07,VWS V14.00,2013-07-04 19:55:00,
2013-07-04 16:55:00,85.7,76.1,30.06,ESE,116,11.0,15.0,73,0.00,,BKN110,0.07,VWS V14.00,2013-07-04 20:55:00,
2013-07-04 17:55:00,84.8,76.4,30.06,SSE,153,3.0,12.0,76,0.00,,BKN110,0.07,VWS V14.00,2013-07-04 21:55:00,
2013-07-04 18:55:00,84.1,75.7,30.06,SE,133,1.0,11.0,76,0.00,,BKN110,0.07,VWS V14.00,2013-07-04 22:55:00,
2013-07-04 19:55:00,82.6,75.4,30.08,ESE,107,6.0,12.0,79,0.00,,BKN110,0.07,VWS V14.00,2013-07-04 23:55:00,
2013-07-04 20:55:00,82.3,75.5,30.10,East,88,1.0,12.0,80,0.00,,BKN120,0.07,VWS V14.00,2013-07-05 00:55:00,
2013-07-04 21:55:00,82.1,76.1,30.12,ESE,111,3.0,10.0,82,0.00,,BKN250,0.07,VWS V14.00,2013-07-05 01:55:00,
2013-07-04 22:55:00,82.2,75.4,30.12,SE,141,6.0,13.0,80,0.00,,BKN250,0.07,VWS V14.00,2013-07-05 02:55:00,
2013-07-04 23:57:00,79.8,73.1,30.12,SW,229,0.0,9.0,80,0.00,,BKN250,0.00,VWS V14.00,2013-07-05 03:57:00,